logo
App data

Toy Soldiers: War Chest

Store | Hub | SteamDB | Site
Developer: Signal Studios, Krome Studios Publisher: Ubisoft
Genre: Action, Casual, Strategy
Languages: English, French, Italian, German, Spanish
Tags: Strategy (34), Action (32), Casual (29), Multiplayer (23), Tower Defense (23)
Category: Single-player, Multi-player, Co-op, Steam Achievements, Partial Controller Support, Steam Cloud
Release date: Aug 12, 2015
Price: $3.74 75%
Score rank: 11% Userscore: 50% Old userscore: 51% Metascore: 60%
Owners: 0 .. 20,000
Followers: 4,335
Peak concurrent players yesterday: 1
Playtime total: 08:51 (average) 12:07 (median)

Steam Spy is still in beta, so expect major bugs.

Owners data:

Access restricted.

This feature is only available to users with special access rights. Sorry.

If you want to proceed, you need to register or log in first and then back Steam Spy on Patreon. Look for Indie or Pro pledge.

Don't forget to use the same email as on Steam Spy!

Audience in 2 weeks:

Access restricted.

This feature is only available to users with special access rights. Sorry.

If you want to proceed, you need to register or log in first and then back Steam Spy on Patreon. Look for Indie or Pro pledge.

Don't forget to use the same email as on Steam Spy!

Peak daily concurrent players:

CCU data courtesy of SteamDB. Used with permission.

Hourly concurrent players:

Daily Twitch stats:

Hourly Twitch stats:

YouTube:

The views data is based on top 50 videos uploaded last week. Actual number of views might be more than the number shown.

The displayed number of videos uploaded yesterday is limited to 50, so if there were more videos uploaded, the number will still show 50.

If the game has commonly used word as its name (like "FEAR" or "Volume") its number of Youtube views might be wrong.

Games similar to this one:

# Game Release date
Price
Score rank
(Userscore / Metascore)
Owners
Players
Playtime (Median)
1 Little Big Adventure 2 Oct 20, 2015 $3.9999% (98%)20,000 .. 50,0000%00:00 (00:00)
2 Dungeon Warfare Nov 4, 2015 $9.9997% (97%)20,000 .. 50,0001.3%00:23 (00:07)
3 Seven Kingdoms: Ancient Adversaries Mar 22, 2016 $5.99N/A (N/A)0 .. 20,0000%00:00 (00:00)
4 Imperium Galactica Mar 1, 1997 $4.99N/A (N/A)0 .. 20,0000%00:00 (00:00)
5 Militia Dec 2, 2015 $5.9995% (96%)0 .. 20,0000%00:00 (00:00)
6 Defend The Highlands Nov 6, 2015 $9.99N/A (N/A)100,000 .. 200,0000%00:00 (00:00)
7 Voodoo Vince: Remastered Apr 18, 2017 $14.9995% (96%/63%)0 .. 20,0000%00:00 (00:00)
8 Chicken Invaders 2 Mar 4, 2016 $3.9993% (95%)0 .. 20,0003.23%04:40 (01:33)
9 Templar Battleforce Sep 21, 2015 $9.9993% (95%)20,000 .. 50,0000%00:00 (00:00)
10 Supercharged Robot VULKAISER Jun 4, 2015 $4.9993% (95%)20,000 .. 50,0000%00:00 (00:00)
11 Hegemony Gold: Wars of Ancient Greece Mar 30, 2012 $14.9993% (95%)20,000 .. 50,0000%00:00 (00:00)
12 Flywrench Aug 24, 2015 $6.9993% (95%)0 .. 20,0000%00:00 (00:00)
13 Stick it to The Man! Dec 13, 2013 $7.9990% (94%/83%)20,000 .. 50,0000%00:00 (00:00)
14 Audio Arena Jul 25, 2016 $6.99N/A (N/A)0 .. 20,0000%00:00 (00:00)
15 Star Trek: Judgment Rites May 8, 2015 $9.99N/A (N/A)0 .. 20,0000%00:00 (00:00)
16 ESCHATOS Sep 18, 2015 $14.9990% (94%)0 .. 20,0000%00:00 (00:00)
17 Neon Chrome Apr 28, 2016 $14.9990% (94%/74%)200,000 .. 500,0000.52%00:24 (00:15)
18 PixelJunk Shooter Nov 11, 2013 $8.9990% (94%/73%)100,000 .. 200,0000%00:00 (00:00)
19 Outcast 1.1 Dec 18, 2014 $5.9990% (94%)20,000 .. 50,0000%00:00 (00:00)
20 Adventure in the Tower of Flight Dec 23, 2015 $4.99N/A (N/A)0 .. 20,0000%00:00 (00:00)
21 Majesty Gold HD Sep 4, 2009 $9.9990% (94%)100,000 .. 200,0000%00:00 (00:00)
22 Gold Rush! Classic Jul 25, 2014 $2.99N/A (N/A)200,000 .. 500,0000.4%03:42 (03:36)
23 Handsome Mr. Frog Aug 8, 2016 $0.9987% (93%)0 .. 20,0000%00:00 (00:00)
24 Run or Die Dec 11, 2014 $4.9987% (93%)0 .. 20,0000%00:00 (00:00)
25 Eufloria HD Oct 14, 2014 $14.9987% (93%)200,000 .. 500,0000%00:00 (00:00)
26 Major Mayhem Feb 24, 2014 $4.99N/A (N/A)20,000 .. 50,0000%00:00 (00:00)
27 Kick Ass Commandos Nov 17, 2016 $4.9987% (93%)20,000 .. 50,0000%00:00 (00:00)
28 Kalimba Apr 22, 2015 $9.9987% (93%/81%)0 .. 20,0000%00:00 (00:00)
29 Pharaoh Rebirth+ Mar 17, 2016 $9.9987% (93%)0 .. 20,0007.14%10:27 (03:29)
30 Anarcute Jul 12, 2016 $14.9987% (93%/79%)0 .. 20,0000%00:00 (00:00)
31 Super Trench Attack! Jul 24, 2014 $4.9987% (93%)50,000 .. 100,0000.47%00:01 (00:00)
32 Bleed Jul 3, 2013 $1.9987% (93%)100,000 .. 200,0001.13%04:57 (03:18)
33 Ittle Dew Jul 23, 2013 $9.9983% (92%/67%)100,000 .. 200,0000.41%00:08 (00:02)
34 Knightmare Tower Jun 16, 2014 $3.9983% (92%)0 .. 20,0000%00:00 (00:00)
35 Great Big War Game Aug 28, 2012 $6.99N/A (N/A)0 .. 20,0000%00:00 (00:00)
36 Death Ray Manta SE Sep 17, 2015 $1.9983% (92%)20,000 .. 50,0000%00:00 (00:00)
37 Shmups Skill Test シューティング技能検定 Jun 9, 2016 $4.99N/A (N/A)0 .. 20,0000%00:00 (00:00)
38 Darknet Jun 8, 2017 $14.9983% (92%)0 .. 20,0000%00:00 (00:00)
39 Miracle Fly Oct 26, 2015 $7.99N/A (N/A)20,000 .. 50,0000%00:00 (00:00)
40 Tallowmere Mar 3, 2015 $3.9983% (92%)20,000 .. 50,0002.17%00:29 (00:09)
41 Counter Spell Oct 5, 2015 $9.9983% (92%)0 .. 20,00025%00:07 (00:03)
42 Wars and Warriors: Joan of Arc Sep 3, 2015 $6.9983% (92%/60%)0 .. 20,0000%00:00 (00:00)
43 Ys VI: The Ark of Napishtim Apr 28, 2015 $19.9983% (92%/76%)50,000 .. 100,0001.08%02:58 (00:59)
44 Mad Bullets Jun 10, 2016 $2.9979% (91%)0 .. 20,0000%00:00 (00:00)
45 Near Death Aug 2, 2016 $14.9979% (91%/70%)20,000 .. 50,0000%00:00 (00:00)
46 The Juicer Sep 11, 2015 $0.9979% (91%)20,000 .. 50,0000%00:00 (00:00)
47 Momodora III Jul 1, 2014 $1.9979% (91%)50,000 .. 100,0002.88%02:21 (02:21)
48 Weird Hero Nov 18, 2016 $3.9979% (91%)0 .. 20,0000%00:00 (00:00)
49 Battle Academy 2: Eastern Front Sep 12, 2014 $39.9979% (91%/78%)0 .. 20,0000%00:00 (00:00)
50 Skulls of the Shogun Jul 29, 2013 $9.9979% (91%/72%)100,000 .. 200,0000%00:00 (00:00)
51 Super Cyborg Jul 8, 2015 $4.9979% (91%)20,000 .. 50,0000%00:00 (00:00)
52 Kohan II: Kings of War Aug 24, 2011 $9.9979% (91%/81%)20,000 .. 50,0000%00:00 (00:00)
53 Apocalypse: Party's Over May 30, 2016 $4.9979% (91%)0 .. 20,0000%00:00 (00:00)
54 Angry Video Game Nerd II: ASSimilation Mar 29, 2016 $9.9979% (91%)20,000 .. 50,0000%00:00 (00:00)
55 Clash of Puppets Dec 16, 2014 $4.99N/A (N/A)0 .. 20,0000%00:00 (00:00)
56 Warrior Kings: Battles May 6, 2014 $9.9979% (91%/64%)0 .. 20,00010%00:56 (00:28)
57 Blue Estate The Game Apr 8, 2015 $12.9979% (91%/59%)50,000 .. 100,0000%00:00 (00:00)
58 Below Kryll Sep 7, 2015 $4.9979% (91%)0 .. 20,0000%00:00 (00:00)
59 Dandy: Or a Brief Glimpse Into the Life of the Candy Alchemist Aug 4, 2015 $9.99N/A (N/A)0 .. 20,0000%00:00 (00:00)
60 Codename: Panzers, Phase Two Feb 18, 2016 $14.9979% (91%/80%)0 .. 20,0000%00:00 (00:00)
61 Swords and Soldiers HD Dec 2, 2010 $9.9976% (90%)100,000 .. 200,0000.17%04:58 (06:36)
62 Valley Aug 24, 2016 $19.9976% (90%)200,000 .. 500,0001.9%00:23 (00:30)
63 MoonBase Commander Feb 6, 2014 $5.9976% (90%/77%)0 .. 20,0000%00:00 (00:00)
64 Wild Guns Reloaded Jul 11, 2017 $14.9976% (90%)0 .. 20,0000%00:00 (00:00)
65 Khet 2.0 Oct 1, 2014 $2.4976% (90%)50,000 .. 100,0000%00:00 (00:00)
66 System Crash Aug 1, 2016 $14.9976% (90%)0 .. 20,0000%00:00 (00:00)
67 Earth Defense Force: Insect Armageddon Dec 14, 2011 $9.9976% (90%/69%)50,000 .. 100,0000%00:00 (00:00)
68 Zombo Buster Rising Oct 2, 2016 $1.9976% (90%)0 .. 20,0000%00:00 (00:00)
69 Headlander Jul 25, 2016 $19.9976% (90%/74%)50,000 .. 100,0000%00:00 (00:00)
70 Amaranthine Apr 6, 2016 $2.99N/A (N/A)0 .. 20,0000%00:00 (00:00)
71 Sneaky Sneaky Nov 12, 2014 $4.9976% (90%/63%)0 .. 20,0000%00:00 (00:00)
72 Planet of the Eyes Aug 24, 2015 $9.9976% (90%/66%)50,000 .. 100,0000%00:00 (00:00)
73 Ace of Seafood Apr 8, 2016 $11.9976% (90%)0 .. 20,0000%00:00 (00:00)
74 Warhammer 40,000: Dawn of War – Winter Assault Aug 7, 2007 $12.9976% (90%)500,000 .. 1,000,0000.13%00:12 (00:04)
75 Death's Hangover Jan 20, 2017 $4.9976% (90%)20,000 .. 50,0000.99%00:10 (00:03)
76 Superstatic Sep 15, 2015 $4.99N/A (N/A)0 .. 20,0001.85%00:01 (00:00)
77 RIVE: Wreck, Hack, Die, Retry! Sep 13, 2016 $14.9976% (90%)200,000 .. 500,0000.4%01:47 (01:11)
78 Lethe - Episode One Aug 1, 2016 $14.9973% (89%)0 .. 20,0000%00:00 (00:00)
79 Reverse Crawl Sep 24, 2015 $5.9973% (89%)20,000 .. 50,0000%00:00 (00:00)
80 Silent Storm Gold Edition Oct 2, 2013 $9.9973% (89%/83%)100,000 .. 200,0000%00:00 (00:00)
81 Fort Meow Jun 24, 2015 $7.9973% (89%)0 .. 20,0000%00:00 (00:00)
82 CastleStorm Jul 29, 2013 $9.9973% (89%/73%)100,000 .. 200,0000%00:00 (00:00)
83 Tcheco in the Castle of Lucio Jun 22, 2015 $0.9973% (89%)50,000 .. 100,0000.41%05:00 (01:40)
84 Armed with Wings: Rearmed Jun 1, 2017 $9.9973% (89%)20,000 .. 50,0000%00:00 (00:00)
85 Mr. Shifty Apr 13, 2017 $14.9970% (88%)50,000 .. 100,0000.66%02:29 (02:08)
86 Atom Zombie Smasher Mar 14, 2011 $9.9970% (88%/75%)200,000 .. 500,0000.56%00:36 (00:15)
87 TRON 2.0 Oct 10, 2014 $9.9970% (88%/84%)20,000 .. 50,0003.23%00:02 (00:01)
88 Kohan: Ahriman's Gift Aug 24, 2011 $9.99N/A (N/A/79%)0 .. 20,0000%00:00 (00:00)
89 Explosionade Sep 23, 2015 $3.99N/A (N/A)0 .. 20,0000%00:00 (00:00)
90 Earn to Die 2 May 5, 2016 $4.9970% (88%)20,000 .. 50,0000%00:00 (00:00)
91 Viking Squad Oct 4, 2016 $14.9970% (88%)0 .. 20,0000%00:00 (00:00)
92 Anodyne Mar 22, 2013 $9.9970% (88%/75%)100,000 .. 200,0000.39%03:33 (01:11)
93 Battlepillars Gold Edition Apr 28, 2014 $4.9970% (88%)20,000 .. 50,0003.17%04:45 (03:10)
94 Greed Corp Dec 10, 2010 $9.9970% (88%/76%)200,000 .. 500,0000%00:00 (00:00)
95 The Fall May 30, 2014 $9.9970% (88%/76%)200,000 .. 500,0000%00:00 (00:00)
96 The Tiny Tale 2 Jan 30, 2015 $6.99N/A (N/A)0 .. 20,0000%00:00 (00:00)
97 Spider: Rite of the Shrouded Moon Aug 6, 2015 $9.99N/A (N/A)20,000 .. 50,0000%00:00 (00:00)
98 Spooky Cats Jun 4, 2015 $2.9967% (87%)20,000 .. 50,0000%00:00 (00:00)
99 Spectromancer Feb 11, 2009 $9.9967% (87%)20,000 .. 50,0000%00:00 (00:00)
100 Blacksea Odyssey Jun 1, 2016 $9.9967% (87%/74%)20,000 .. 50,0002.56%01:04 (00:21)
101 Graviteam Tactics: Mius-Front Mar 4, 2016 $34.9967% (87%)0 .. 20,0000%00:00 (00:00)
102 Rush for Berlin Gold Oct 29, 2009 $4.9967% (87%/76%)20,000 .. 50,0000%00:00 (00:00)
103 Time Rifters Oct 21, 2014 $9.9967% (87%)0 .. 20,0009.38%02:15 (02:14)
104 Sang-Froid - Tales of Werewolves Apr 5, 2013 Free67% (87%/79%)200,000 .. 500,0000%00:00 (00:00)
105 Lethal VR Nov 8, 2016 $14.9967% (87%/66%)0 .. 20,0000%00:00 (00:00)
106 Syrian Warfare Feb 21, 2017 $14.9967% (87%)50,000 .. 100,0000%00:00 (00:00)
107 The Haunted: Hells Reach Oct 24, 2011 $8.9967% (87%/51%)50,000 .. 100,0000%00:00 (00:00)
108 Shadow Blade: Reload Aug 10, 2015 $5.2467% (87%/70%)20,000 .. 50,0000.88%00:02 (00:00)
109 Avoid - Sensory Overload Apr 8, 2014 $4.9967% (87%)20,000 .. 50,0000%00:00 (00:00)
110 Bullet Sorrow VR Apr 17, 2017 $19.9964% (86%)0 .. 20,0000%00:00 (00:00)
111 Executive Assault Jul 17, 2015 $12.9964% (86%)20,000 .. 50,0000%00:00 (00:00)
112 Slash or Die Jun 3, 2016 $2.9964% (86%)20,000 .. 50,0000%00:00 (00:00)
113 Arcane Sorcery Sep 15, 2015 $4.99N/A (N/A)0 .. 20,0000%00:00 (00:00)
114 N2O: Nitrous Oxide Jun 29, 2015 $4.99N/A (N/A)0 .. 20,0000%00:00 (00:00)
115 The Way May 20, 2016 $2.9964% (86%/67%)50,000 .. 100,0001.97%00:40 (00:18)
116 Civilization IV: Warlords Apr 6, 2007 $4.9964% (86%/84%)1,000,000 .. 2,000,0000%00:00 (00:00)
117 NOBUNAGA'S AMBITION: Souzou (Traditional Chinese version) Aug 2014 $24.9964% (86%)20,000 .. 50,0000%00:00 (00:00)
118 Super Chibi Knight Jun 24, 2015 $4.9964% (86%)20,000 .. 50,0000%00:00 (00:00)
119 Meltdown Jun 5, 2014 $6.9964% (86%)50,000 .. 100,0000.93%00:03 (00:01)
120 Star Ruler Sep 20, 2010 $9.9964% (86%)100,000 .. 200,0000%00:00 (00:00)
121 Command: Northern Inferno Oct 22, 2015 $19.99N/A (N/A)0 .. 20,0000%00:00 (00:00)
122 Ballistic Tanks Sep 20, 2016 $4.9964% (86%)0 .. 20,0005.26%00:04 (00:01)
123 Steel Rain Dec 3, 2015 $9.99N/A (N/A)0 .. 20,0002.33%00:01 (00:00)
124 Supreme Commander Sep 28, 2011 $12.9964% (86%/86%)500,000 .. 1,000,0000.26%01:45 (01:09)
125 ENSLAVED: Odyssey to the West Premium Edition Oct 24, 2013 $19.9962% (85%/70%)200,000 .. 500,0000.35%06:19 (04:12)
126 Gurgamoth Feb 16, 2016 $4.99N/A (N/A)50,000 .. 100,0000.63%02:31 (00:50)
127 Last Knight: Rogue Rider Edition Oct 3, 2014 $1.5962% (85%)20,000 .. 50,0000%00:00 (00:00)
128 Delta Force 2 Jun 18, 2009 $4.9962% (85%)20,000 .. 50,0002.56%00:06 (00:02)
129 Magnifico Dec 2, 2014 $4.99N/A (N/A)50,000 .. 100,0000%00:00 (00:00)
130 Ghost Master Dec 21, 2006 $4.9962% (85%/81%)100,000 .. 200,0000.46%00:01 (00:00)
131 ShootMania Storm Apr 10, 2013 $19.9962% (85%/76%)50,000 .. 100,0001.45%00:43 (00:14)
132 Dustoff Heli Rescue Mar 6, 2015 $3.9962% (85%)20,000 .. 50,0000%00:00 (00:00)
133 Interloper May 21, 2015 Free62% (85%/77%)50,000 .. 100,0000%00:00 (00:00)
134 Rooks Keep Dec 5, 2014 $7.99N/A (N/A)20,000 .. 50,0000%00:00 (00:00)
135 Age of Wonders Shadow Magic Oct 2010 $9.9962% (85%/82%)100,000 .. 200,0000%00:00 (00:00)
136 VelocityUltra Dec 12, 2013 $9.9962% (85%)50,000 .. 100,0000.62%00:02 (00:00)
137 Western 1849 Reloaded Feb 10, 2017 $4.9962% (85%)0 .. 20,0001.72%00:06 (00:02)
138 Super Furball Apr 21, 2015 $3.99N/A (N/A)0 .. 20,0000%00:00 (00:00)
139 Legend (1994) Nov 10, 2015 $4.99N/A (N/A)0 .. 20,0002.94%09:53 (03:17)
140 CRYPTARK Jun 20, 2017 $14.9959% (84%/80%)50,000 .. 100,0000%00:00 (00:00)
141 Fat Chicken Dec 4, 2014 $9.99N/A (N/A)0 .. 20,0000%00:00 (00:00)
142 The Men of Yoshiwara: Kikuya Oct 14, 2015 $29.9959% (84%)0 .. 20,0000%00:00 (00:00)
143 Battle Group 2 Jun 13, 2014 $7.9959% (84%)50,000 .. 100,0000%00:00 (00:00)
144 Demons with Shotguns Apr 25, 2016 $9.99N/A (N/A)0 .. 20,0000%00:00 (00:00)
145 Neon Shadow Aug 25, 2016 $4.99N/A (N/A)0 .. 20,0000%00:00 (00:00)
146 Foresight Nov 28, 2014 $4.99N/A (N/A)0 .. 20,0000%00:00 (00:00)
147 Act of War: Direct Action Mar 12, 2008 $1.1959% (84%/82%)20,000 .. 50,0000%00:00 (00:00)
148 Sudden Strike 2 Gold Aug 30, 2002 $5.9959% (84%)0 .. 20,0000%00:00 (00:00)
149 GIBZ Apr 7, 2017 $3.1956% (83%)0 .. 20,0000%00:00 (00:00)
150 NOBUNAGA'S AMBITION: Sphere of Influence Sep 1, 2015 $59.9956% (83%/70%)20,000 .. 50,0000%00:00 (00:00)
151 Advanced Tactics Gold Aug 15, 2014 $29.9956% (83%)0 .. 20,0000%00:00 (00:00)
152 Weapon of Choice Sep 23, 2015 $4.99N/A (N/A)0 .. 20,0000%00:00 (00:00)
153 Orbital Gear Aug 7, 2014 $9.9956% (83%/59%)200,000 .. 500,0000%00:00 (00:00)
154 TY the Tasmanian Tiger 4 Sep 17, 2015 $5.9956% (83%)20,000 .. 50,0000%00:00 (00:00)
155 Ace of Protectors Jun 27, 2016 $1.99N/A (N/A)20,000 .. 50,0000%00:00 (00:00)
156 Eador: Genesis Oct 14, 2013 $5.9956% (83%)50,000 .. 100,0000%00:00 (00:00)
157 Crush Your Enemies Jul 13, 2016 $9.9956% (83%/63%)20,000 .. 50,0006%32:27 (32:01)
158 Shadow Ops: Red Mercury Jul 2, 2014 $6.9954% (82%/61%)20,000 .. 50,0000%00:00 (00:00)
159 PixelJunk Shooter Ultimate Oct 21, 2015 $9.9954% (82%)0 .. 20,0000%00:00 (00:00)
160 htoL#NiQ: The Firefly Diary / htoL#NiQ-ホタルノニッキ- May 18, 2016 $9.9954% (82%)20,000 .. 50,0000%00:00 (00:00)
161 Bulletstorm: Full Clip Edition Apr 7, 2017 $39.9954% (82%/76%)50,000 .. 100,0002.5%01:10 (01:10)
162 Square Brawl Oct 22, 2015 $4.9954% (82%)0 .. 20,0004%04:08 (01:22)
163 Blade Arcus from Shining: Battle Arena Jul 28, 2016 $29.9954% (82%)0 .. 20,0000%00:00 (00:00)
164 Yomi May 8, 2015 $14.9954% (82%)0 .. 20,0000%00:00 (00:00)
165 Galaxy Admirals Jan 17, 2017 $1.9954% (82%)50,000 .. 100,0000.51%00:20 (00:06)
166 Rack N Ruin Sep 1, 2015 $9.9954% (82%)0 .. 20,0000%00:00 (00:00)
167 Fantasy Wars Aug 6, 2010 $4.9952% (81%/67%)50,000 .. 100,0000%00:00 (00:00)
168 Gun Metal Jan 16, 2014 $1.0152% (81%)200,000 .. 500,0000%00:00 (00:00)
169 Tiki Man Jun 5, 2015 $0.9952% (81%)20,000 .. 50,0000.81%00:01 (00:00)
170 Conflict Desert Storm May 28, 2012 $6.9952% (81%/56%)20,000 .. 50,0000%00:00 (00:00)
171 In Verbis Virtus Apr 3, 2015 $19.9952% (81%)50,000 .. 100,0002.04%00:23 (00:15)
172 Concealed Intent Aug 2, 2016 $14.99N/A (N/A)0 .. 20,0000%00:00 (00:00)
173 Supreme Ruler 2020 Gold Jul 9, 2009 $9.9952% (81%/65%)50,000 .. 100,0000%00:00 (00:00)
174 Toadled Sep 22, 2016 $0.9952% (81%)50,000 .. 100,0000%00:00 (00:00)
175 ROD: Revolt Of Defense Aug 12, 2016 $0.9952% (81%)20,000 .. 50,0000%00:00 (00:00)
176 Zeno Clash 2 Apr 30, 2013 $14.9950% (80%)200,000 .. 500,0000.39%00:06 (00:04)
177 Disciples Sacred Lands Gold Oct 7, 2014 $7.9950% (80%)20,000 .. 50,0000%00:00 (00:00)
178 Trigger Runners Mar 3, 2016 $1.99N/A (N/A)0 .. 20,0000%00:00 (00:00)
179 Star Wolves 3: Civil War Mar 2, 2010 $4.9950% (80%)100,000 .. 200,0000.43%00:22 (00:07)
180 Child Of Ault Jan 24, 2017 $9.99N/A (N/A)0 .. 20,0000%00:00 (00:00)
181 Graviteam Tactics: Operation Star Feb 11, 2014 $29.9950% (80%)20,000 .. 50,0000%00:00 (00:00)
182 Bloodsports.TV Mar 30, 2015 $9.9950% (80%/69%)100,000 .. 200,0001.31%01:39 (00:44)
183 Legends of Callasia Jun 10, 2016 Free50% (80%)50,000 .. 100,0000%00:00 (00:00)
184 Perimeter Apr 3, 2014 $3.9950% (80%/77%)20,000 .. 50,0000%00:00 (00:00)
185 Junk Jack Nov 30, 2016 $14.9950% (80%)0 .. 20,0000%00:00 (00:00)
186 Locoland May 28, 2015 $4.9950% (80%)0 .. 20,0006.25%01:25 (00:28)
187 Run Rabbit Run Mar 31, 2016 $3.99N/A (N/A)0 .. 20,0000%00:00 (00:00)
188 Defense Zone Jul 14, 2014 $2.99N/A (N/A)0 .. 20,0000%00:00 (00:00)
189 Conquest of Elysium 3 Oct 24, 2012 $9.9950% (80%)20,000 .. 50,0000%00:00 (00:00)
190 She Wants Me Dead May 13, 2016 $7.99N/A (N/A)0 .. 20,0000%00:00 (00:00)
191 7,62 High Calibre Apr 30, 2014 $4.9950% (80%)20,000 .. 50,0000%00:00 (00:00)
192 Enemy Mind Jun 6, 2014 $9.9950% (80%)200,000 .. 500,0000%00:00 (00:00)
193 Monday Night Combat Jan 24, 2011 $4.9950% (80%/82%)200,000 .. 500,0000%00:00 (00:00)
194 Fleet Command Oct 26, 2006 $3.9950% (80%)50,000 .. 100,0000%00:00 (00:00)
195 Hail to the King: Deathbat Oct 30, 2014 $5.9950% (80%)0 .. 20,0000%00:00 (00:00)
196 Envoy Mar 17, 2016 $4.99N/A (N/A)50,000 .. 100,0000%00:00 (00:00)
197 rymdkapsel Jan 30, 2014 $7.9950% (80%/77%)0 .. 20,0000%00:00 (00:00)
198 Defense Zone 3 Ultra HD Dec 14, 2016 $2.9947% (79%)20,000 .. 50,0000%00:00 (00:00)
199 Advent Rising Sep 14, 2006 $9.9947% (79%/70%)50,000 .. 100,0000%00:00 (00:00)
200 Bet On Soldier Dec 5, 2014 $7.9947% (79%)20,000 .. 50,0001.01%00:04 (00:01)
201 Pharaonic Apr 28, 2016 $14.9947% (79%)0 .. 20,0000%00:00 (00:00)
202 Anomaly 2 May 15, 2013 $14.9947% (79%/77%)200,000 .. 500,0000.75%01:27 (01:36)
203 Fate of the World Feb 28, 2011 $9.9947% (79%/70%)50,000 .. 100,0000%00:00 (00:00)
204 Vietnam ‘65 Mar 5, 2015 $9.9947% (79%/81%)20,000 .. 50,0000%00:00 (00:00)
205 Interplanetary May 12, 2015 N/A47% (79%)100,000 .. 200,0001.29%02:12 (03:03)
206 Ironcast Mar 26, 2015 $14.9947% (79%/75%)20,000 .. 50,0000%00:00 (00:00)
207 Protoshift Jan 15, 2016 $0.99N/A (N/A)0 .. 20,0000%00:00 (00:00)
208 Umihara Kawase Shun: Steam Edition Nov 24, 2015 $11.99N/A (N/A)0 .. 20,0000%00:00 (00:00)
209 The Legend of Dark Witch Dec 1, 2015 $4.9947% (79%)20,000 .. 50,0000%00:00 (00:00)
210 David. Feb 16, 2015 $1.9947% (79%)50,000 .. 100,0000%00:00 (00:00)
211 Fortified Feb 3, 2016 $14.9947% (79%)500,000 .. 1,000,0000.54%03:34 (01:51)
212 Making History: The Calm & the Storm Mar 13, 2007 $4.9947% (79%/70%)50,000 .. 100,0000%00:00 (00:00)
213 TASTEE: Lethal Tactics May 10, 2016 $14.9947% (79%)20,000 .. 50,0000%00:00 (00:00)
214 Demolition Inc. Sep 19, 2011 $5.9947% (79%)50,000 .. 100,0000%00:00 (00:00)
215 Nuclear Dawn Sep 26, 2011 $9.9947% (79%/71%)200,000 .. 500,0000.43%00:19 (00:12)
216 Gatling Gears Aug 30, 2011 $9.9947% (79%)20,000 .. 50,0003.03%00:14 (00:04)
217 Age of Gladiators Feb 25, 2016 $9.9947% (79%)20,000 .. 50,0000%00:00 (00:00)
218 TRON RUN/r Feb 16, 2016 $19.9947% (79%)0 .. 20,0000%00:00 (00:00)
219 Caster Mar 19, 2009 $1.9947% (79%)200,000 .. 500,0000%00:00 (00:00)
220 Strike Suit Zero: Director's Cut Apr 8, 2014 $19.9945% (78%)20,000 .. 50,0000%00:00 (00:00)
221 Dead Rising 2: Off the Record Oct 11, 2011 $19.9945% (78%/66%)200,000 .. 500,0000.33%00:16 (00:10)
222 Cultures - 8th Wonder of the World Mar 26, 2015 $4.9945% (78%)50,000 .. 100,0000%00:00 (00:00)
223 Mold on Pizza Sep 25, 2015 $5.9945% (78%)0 .. 20,0003.23%00:01 (00:00)
224 After The End: The Harvest Jun 2, 2017 $4.9945% (78%)20,000 .. 50,0000%00:00 (00:00)
225 Klang Sep 22, 2016 $14.9945% (78%/71%)0 .. 20,0000%00:00 (00:00)
226 Zombie Party Jun 10, 2016 $9.9945% (78%)100,000 .. 200,0002.38%00:19 (00:06)
227 Zombie Killtime Aug 4, 2015 $1.99N/A (N/A)0 .. 20,0000%00:00 (00:00)
228 Aeon Command Jul 3, 2014 $2.9945% (78%)20,000 .. 50,0000%00:00 (00:00)
229 Tank Destroyer Mar 9, 2017 $2.9945% (78%)20,000 .. 50,0000%00:00 (00:00)
230 Velocity 2X Aug 19, 2015 $19.99N/A (N/A)50,000 .. 100,0000%00:00 (00:00)
231 Age of Wonders Oct 2010 $5.9945% (78%)100,000 .. 200,0000%00:00 (00:00)
232 PAC-MAN and the Ghostly Adventures Oct 29, 2013 $19.9945% (78%)0 .. 20,0000%00:00 (00:00)
233 Starscape Nov 3, 2008 $7.9945% (78%)0 .. 20,0000%00:00 (00:00)
234 Deadly 30 Jan 8, 2014 $4.9945% (78%)100,000 .. 200,0000.36%04:33 (01:31)
235 A Blind Legend Apr 7, 2016 $6.9943% (77%)0 .. 20,0000%00:00 (00:00)
236 Blue Effect VR Sep 29, 2016 $14.9943% (77%)0 .. 20,0000%00:00 (00:00)
237 Auralux: Constellations Jun 1, 2016 $9.99N/A (N/A)0 .. 20,0000%00:00 (00:00)
238 Anomaly Warzone Earth Mobile Campaign Nov 6, 2013 $4.9943% (77%)100,000 .. 200,0001.09%01:19 (01:15)
239 Warhammer 40,000: Armageddon Nov 26, 2014 $39.9943% (77%/68%)20,000 .. 50,0004.17%11:09 (03:43)
240 Dominions 3: The Awakening Sep 10, 2013 $19.9943% (77%/82%)0 .. 20,0000%00:00 (00:00)
241 Making History II: The War of the World Aug 27, 2010 $14.9943% (77%/38%)20,000 .. 50,0000%00:00 (00:00)
242 Curse of the Crescent Isle DX Aug 21, 2015 $0.9943% (77%)0 .. 20,0000%00:00 (00:00)
243 Heroes of Might & Magic V: Hammers of Fate Oct 10, 2008 $9.9943% (77%/66%)200,000 .. 500,0000.56%00:34 (00:11)
244 Sky Gamblers: Storm Raiders Jan 7, 2015 $9.9943% (77%)0 .. 20,0000%00:00 (00:00)
245 King of Dragon Pass Jul 28, 2015 $11.9943% (77%)20,000 .. 50,0000%00:00 (00:00)
246 Ninjahtic Jul 6, 2015 $1.9943% (77%)0 .. 20,0000%00:00 (00:00)
247 McDROID Sep 5, 2014 $9.9943% (77%)0 .. 20,0000%00:00 (00:00)
248 Starchaser: Priestess of the Night Sky Jul 24, 2015 $9.99N/A (N/A)0 .. 20,0000%00:00 (00:00)
249 The Political Machine 2016 Feb 4, 2016 $9.9943% (77%)50,000 .. 100,0001.42%00:17 (00:09)
250 Warlords Battlecry III Jan 22, 2016 $9.9943% (77%/73%)20,000 .. 50,0000%00:00 (00:00)
251 Mysterium: A Psychic Clue Game Jan 12, 2017 $6.9941% (76%)50,000 .. 100,0001.48%05:36 (03:52)
252 Battlezone Gold Edition May 11, 2017 $34.9941% (76%)0 .. 20,0000%00:00 (00:00)
253 Vector Strain Dec 9, 2015 $4.99N/A (N/A)20,000 .. 50,0001.79%04:37 (01:32)
254 Olympia Rising Jul 23, 2015 $4.9941% (76%)0 .. 20,0000%00:00 (00:00)
255 BloodRayne Sep 14, 2006 $9.9941% (76%/65%)50,000 .. 100,0000%00:00 (00:00)
256 Deadlings: Rotten Edition Nov 11, 2014 $3.9941% (76%)50,000 .. 100,0000%00:00 (00:00)
257 Star Realms Mar 8, 2016 Free41% (76%)100,000 .. 200,0000%00:00 (00:00)
258 Extravaganza Rising Jul 21, 2016 N/AN/A (N/A)20,000 .. 50,0000%00:00 (00:00)
259 Jim Power -The Lost Dimension Sep 30, 2015 $4.99N/A (N/A)0 .. 20,0000%00:00 (00:00)
260 Corgi Warlock Dec 3, 2015 $1.9941% (76%)20,000 .. 50,0000%00:00 (00:00)
261 Cashtronauts Aug 31, 2016 $2.99N/A (N/A)0 .. 20,0000%00:00 (00:00)
262 Dangerous Waters Feb 7, 2006 $14.9941% (76%/82%)50,000 .. 100,0000%00:00 (00:00)
263 Rocket Knight May 11, 2010 $14.9941% (76%/63%)0 .. 20,0000%00:00 (00:00)
264 Painkiller Hell & Damnation Oct 31, 2012 $19.9941% (76%/64%)500,000 .. 1,000,0000.18%00:01 (00:00)
265 A.R.E.S. Extinction Agenda EX Oct 3, 2014 $9.9941% (76%)0 .. 20,0002.5%00:06 (00:02)
266 Star Hammer: The Vanguard Prophecy Jun 4, 2015 $19.9939% (75%/69%)0 .. 20,00010%00:35 (00:11)
267 Bubsy Two-Fur Dec 17, 2015 $4.9939% (75%)20,000 .. 50,0000%00:00 (00:00)
268 Perimeter: Emperor's Testament May 22, 2014 $3.99N/A (N/A/72%)20,000 .. 50,0001.72%00:02 (00:00)
269 Heaven Forest NIGHTS Mar 13, 2017 $0.9939% (75%)100,000 .. 200,0001.03%03:52 (04:04)
270 CivCity: Rome Apr 6, 2007 $9.9939% (75%/67%)50,000 .. 100,0000%00:00 (00:00)
271 Civil War II Jul 3, 2014 $39.9939% (75%)0 .. 20,0000%00:00 (00:00)
272 WARSHIFT Oct 12, 2016 $6.4939% (75%)20,000 .. 50,0000%00:00 (00:00)
273 Fist Puncher Jun 21, 2013 $9.9939% (75%/73%)20,000 .. 50,0001.19%05:10 (01:43)
274 Victory At Sea Aug 8, 2014 $24.9939% (75%)20,000 .. 50,0000%00:00 (00:00)
275 Chaser Jul 16, 2010 $4.9939% (75%/66%)50,000 .. 100,0000.74%00:09 (00:03)
276 Hunting Unlimited 2008 Jan 29, 2008 $9.99N/A (N/A)20,000 .. 50,0000%00:00 (00:00)
277 Z Jul 4, 2014 $6.9939% (75%)100,000 .. 200,0000.78%01:11 (00:46)
278 Battle Mages: Sign of Darkness Jul 24, 2014 $4.9939% (75%)0 .. 20,0005%04:42 (01:34)
279 Smithy Jun 3, 2016 $3.99N/A (N/A)50,000 .. 100,0000.45%04:03 (01:21)
280 Monster Monpiece Mar 14, 2017 $19.9939% (75%)0 .. 20,0000%00:00 (00:00)
281 Rocketbirds 2 Evolution Jan 26, 2017 $9.9939% (75%)20,000 .. 50,0000%00:00 (00:00)
282 Livelock Aug 30, 2016 $9.9939% (75%/73%)20,000 .. 50,0000%00:00 (00:00)
283 BossConstructor Oct 24, 2016 $14.9939% (75%)0 .. 20,0009.09%00:45 (00:15)
284 Platformines Mar 28, 2014 $9.9939% (75%/67%)100,000 .. 200,0000%00:00 (00:00)
285 Onechanbara Z2: Chaos Jun 2, 2016 $39.9939% (75%)0 .. 20,0006.25%01:06 (00:22)
286 Spirits of Xanadu Mar 26, 2015 $4.9938% (74%)20,000 .. 50,0001.54%00:51 (00:17)
287 TableTop Soccer Apr 22, 2016 $0.9938% (74%)0 .. 20,0000%00:00 (00:00)
288 Master Reboot Oct 29, 2013 $14.9938% (74%/59%)50,000 .. 100,0000%00:00 (00:00)
289 Commander: The Great War Jul 25, 2014 $29.9938% (74%)0 .. 20,0000%00:00 (00:00)
290 Albino Lullaby: Episode 1 Sep 14, 2015 $9.9938% (74%)20,000 .. 50,0000%00:00 (00:00)
291 Riddled Corpses Jun 2, 2015 $7.9938% (74%)20,000 .. 50,0000%00:00 (00:00)
292 Viktor Jun 13, 2014 $7.9938% (74%)20,000 .. 50,0000%00:00 (00:00)
293 Smell Of Death Jul 4, 2016 $9.99N/A (N/A)0 .. 20,0000%00:00 (00:00)
294 Distant Worlds: Universe May 23, 2014 $59.9938% (74%/81%)50,000 .. 100,0002.63%12:17 (04:05)
295 Ubersoldier II Mar 25, 2014 $9.9938% (74%/62%)20,000 .. 50,0000%00:00 (00:00)
296 Battle Time Sep 29, 2016 $0.9936% (73%)50,000 .. 100,0001.4%03:05 (02:03)
297 The Aquatic Adventure of the Last Human Jan 19, 2016 $9.9936% (73%/76%)0 .. 20,0000%00:00 (00:00)
298 Vampire of the Sands Jul 17, 2015 $4.9936% (73%)20,000 .. 50,0000%00:00 (00:00)
299 Making History: The Great War Jan 29, 2015 $29.9936% (73%)20,000 .. 50,0000%00:00 (00:00)
300 Battle Fleet 2 Nov 20, 2014 $14.9936% (73%)20,000 .. 50,0000%00:00 (00:00)
301 Alarameth TD Jun 23, 2015 $4.99N/A (N/A)0 .. 20,0000%00:00 (00:00)
302 Cuban Missile Crisis Mar 25, 2015 $4.9936% (73%)20,000 .. 50,0001.43%00:03 (00:01)
303 Divinity: Dragon Commander Aug 6, 2013 $39.9936% (73%)200,000 .. 500,0000%00:00 (00:00)
304 FIVE: Champions of Canaan Sep 27, 2016 $3.99N/A (N/A)0 .. 20,0004%07:19 (02:26)
305 Supreme Ruler Ultimate Oct 17, 2014 $19.9936% (73%)20,000 .. 50,00020.83%00:17 (00:19)
306 Death by Game Show Jan 22, 2016 $9.99N/A (N/A)20,000 .. 50,0000%00:00 (00:00)
307 Sid Meier’s Ace Patrol Aug 27, 2013 $4.9936% (73%)500,000 .. 1,000,0000.2%00:01 (00:00)
308 FEIST Jul 23, 2015 $9.9936% (73%/65%)20,000 .. 50,0000%00:00 (00:00)
309 Hot Tin Roof: The Cat That Wore A Fedora Feb 20, 2015 $14.9936% (73%/66%)100,000 .. 200,0000%00:00 (00:00)
310 Rex Rocket Aug 5, 2014 $4.9936% (73%)20,000 .. 50,0000%00:00 (00:00)
311 AirMech Command Mar 8, 2017 $19.9936% (73%)0 .. 20,0000%00:00 (00:00)
312 Gold Rush! Anniversary Nov 7, 2014 $5.99N/A (N/A)100,000 .. 200,0000%00:00 (00:00)
313 Airship Dragoon Aug 26, 2014 $19.99N/A (N/A)0 .. 20,0000%00:00 (00:00)
314 Civil War: Battle of Petersburg Feb 8, 2017 $0.6234% (72%)0 .. 20,0000%00:00 (00:00)
315 LEGO Indiana Jones 2: The Adventure Continues Feb 18, 2010 $19.9934% (72%/66%)50,000 .. 100,0001.39%01:20 (00:26)
316 Wildlife Park 2 - Crazy Zoo Jul 17, 2014 $3.99N/A (N/A)20,000 .. 50,0004.17%04:13 (01:24)
317 Retrovirus Jan 31, 2013 $9.9934% (72%/70%)20,000 .. 50,0000%00:00 (00:00)
318 Auro: A Monster-Bumping Adventure Apr 13, 2016 $6.99N/A (N/A)0 .. 20,0000%00:00 (00:00)
319 Cast of the Seven Godsends - Redux Jul 20, 2015 $9.9934% (72%)20,000 .. 50,0000%00:00 (00:00)
320 Codex of Victory Mar 16, 2017 $14.9934% (72%)0 .. 20,0000%00:00 (00:00)
321 Fatal Fight Jun 10, 2016 $2.99N/A (N/A)0 .. 20,0000%00:00 (00:00)
322 Heroes of Arca Feb 16, 2017 Free34% (72%)0 .. 20,0006.67%00:57 (00:19)
323 VRZ: Torment Jun 9, 2016 $9.9934% (72%)0 .. 20,0000%00:00 (00:00)
324 King Arthur - The Role-playing Wargame Nov 24, 2009 $9.9934% (72%)200,000 .. 500,0000%00:00 (00:00)
325 Disney Planes Oct 6, 2014 $19.99N/A (N/A)0 .. 20,0000%00:00 (00:00)
326 Wyv and Keep: The Temple of the Lost Idol Aug 8, 2014 $14.99N/A (N/A)20,000 .. 50,0000%00:00 (00:00)
327 Elliot Quest Nov 10, 2014 $9.9934% (72%)20,000 .. 50,0000%00:00 (00:00)
328 Deadnaut Dec 8, 2014 $9.9934% (72%)0 .. 20,0000%00:00 (00:00)
329 Elven Legacy Apr 7, 2009 $4.9934% (72%/71%)50,000 .. 100,0000%00:00 (00:00)
330 Pick a Hero Jun 9, 2016 $0.99N/A (N/A)0 .. 20,0000%00:00 (00:00)
331 Pike and Shot : Campaigns Aug 13, 2015 $39.9934% (72%)0 .. 20,0000%00:00 (00:00)
332 Lost Planet: Extreme Condition Jun 26, 2007 $14.9934% (72%/66%)200,000 .. 500,0000%00:00 (00:00)
333 Phoning Home Feb 7, 2017 $19.9934% (72%/61%)20,000 .. 50,0000%00:00 (00:00)
334 Pongo May 11, 2015 $0.9934% (72%)50,000 .. 100,0000%00:00 (00:00)
335 Rise & Shine Jan 13, 2017 $14.9934% (72%)20,000 .. 50,0000%00:00 (00:00)
336 The Last Federation Apr 18, 2014 $3.9933% (71%/72%)50,000 .. 100,0000.79%00:06 (00:02)
337 Tom Clancy's EndWar Feb 25, 2009 $9.9933% (71%/68%)50,000 .. 100,0000%00:00 (00:00)
338 Zoo Empire Sep 3, 2015 $6.99N/A (N/A/59%)0 .. 20,0000%00:00 (00:00)
339 There Came an Echo Feb 24, 2015 $14.9933% (71%/58%)20,000 .. 50,0000%00:00 (00:00)
340 Cross of the Dutchman Sep 10, 2015 $8.9933% (71%/59%)20,000 .. 50,0000%00:00 (00:00)
341 A.R.E.S.: Extinction Agenda Jan 19, 2011 $4.9933% (71%/68%)100,000 .. 200,0000%00:00 (00:00)
342 REDCON Apr 22, 2016 $5.9933% (71%)0 .. 20,0000%00:00 (00:00)
343 Banzai Escape Feb 29, 2016 $5.9933% (71%)20,000 .. 50,0000%00:00 (00:00)
344 rooMaze Mar 3, 2017 $1.9933% (71%)100,000 .. 200,0000%00:00 (00:00)
345 Sengoku Jidai: Shadow of the Shogun May 19, 2016 $29.9933% (71%/85%)0 .. 20,0000%00:00 (00:00)
346 Warp Mar 21, 2012 $9.9933% (71%)20,000 .. 50,0000%00:00 (00:00)
347 Strategy & Tactics: Wargame Collection Apr 22, 2016 $9.9931% (70%)20,000 .. 50,0002.11%01:04 (00:42)
348 Brigade E5: New Jagged Union Apr 30, 2014 $3.99N/A (N/A/41%)0 .. 20,0002.44%00:01 (00:00)
349 BitMaster Oct 12, 2016 $2.9931% (70%)200,000 .. 500,0000%00:00 (00:00)
350 Revolution Under Siege Gold Jul 2, 2015 $24.9931% (70%)0 .. 20,0000%00:00 (00:00)
351 Sol 0: Mars Colonization Jan 15, 2016 $3.9929% (69%)20,000 .. 50,0000%00:00 (00:00)
352 Spud's Quest Jul 31, 2014 $7.99N/A (N/A)0 .. 20,0000%00:00 (00:00)
353 The Nightmare Cooperative Jul 16, 2014 $4.99N/A (N/A)50,000 .. 100,0000%00:00 (00:00)
354 Jagged Alliance 2 - Wildfire Nov 16, 2012 $6.9929% (69%)200,000 .. 500,0001.1%05:40 (06:30)
355 Space Colony: Steam Edition Apr 30, 2015 $14.9929% (69%/74%)20,000 .. 50,0001.45%00:01 (00:00)
356 Incandescent Jun 30, 2015 $0.9929% (69%)20,000 .. 50,0000%00:00 (00:00)
357 Little King's Story Aug 5, 2016 $19.9929% (69%/62%)0 .. 20,0000%00:00 (00:00)
358 8-Bit Commando Jun 2, 2014 $2.9929% (69%)50,000 .. 100,0000%00:00 (00:00)
359 Collapse Apr 11, 2014 $19.9929% (69%)20,000 .. 50,0001.23%00:01 (00:00)
360 Lux Delux May 1, 2015 $4.9929% (69%)20,000 .. 50,0000%00:00 (00:00)
361 The Superfluous May 19, 2017 $4.99N/A (N/A)0 .. 20,0000%00:00 (00:00)
362 Panzer Tactics HD May 22, 2014 $9.9929% (69%/69%)20,000 .. 50,0000%00:00 (00:00)
363 Scourge of War: Waterloo Nov 19, 2015 $49.9928% (68%)0 .. 20,0000%00:00 (00:00)
364 Pigmentone Jul 8, 2016 $1.99N/A (N/A)0 .. 20,0000%00:00 (00:00)
365 Royal Defense Nov 10, 2014 $4.9928% (68%)50,000 .. 100,0000%00:00 (00:00)
366 The Hive Aug 25, 2016 $9.9928% (68%)20,000 .. 50,0000%00:00 (00:00)
367 YAIBA: NINJA GAIDEN Z Mar 21, 2014 $29.9928% (68%/49%)20,000 .. 50,0000%00:00 (00:00)
368 The Living Dungeon Nov 2, 2015 $9.99N/A (N/A)0 .. 20,0000%00:00 (00:00)
369 Guns n Zombies Oct 30, 2014 $7.9928% (68%)100,000 .. 200,0001.03%02:02 (01:20)
370 Othello Mar 19, 2015 $2.4928% (68%)0 .. 20,0000%00:00 (00:00)
371 FIVE: Guardians of David Nov 24, 2015 $9.9928% (68%/66%)20,000 .. 50,0000%00:00 (00:00)
372 Bedlam Oct 13, 2015 $12.9928% (68%/54%)100,000 .. 200,0000%00:00 (00:00)
373 Warrior Kings Apr 24, 2014 $9.99N/A (N/A/73%)0 .. 20,0000%00:00 (00:00)
374 ManaCollect Apr 17, 2015 $1.74N/A (N/A)0 .. 20,0000%00:00 (00:00)
375 March of the Eagles Feb 18, 2013 $19.9926% (67%/71%)50,000 .. 100,0000%00:00 (00:00)
376 Toy Odyssey: The Lost and Found Sep 20, 2016 $14.9926% (67%/66%)20,000 .. 50,0000%00:00 (00:00)
377 Space Food Truck Mar 25, 2016 $9.9926% (67%)20,000 .. 50,0000%00:00 (00:00)
378 Survivor Squad: Gauntlets Nov 16, 2015 $4.9926% (67%)20,000 .. 50,0002.08%06:09 (02:03)
379 Stonerid Aug 15, 2014 $4.9926% (67%)50,000 .. 100,0000%00:00 (00:00)
380 Kill The Plumber Dec 31, 2015 $4.9926% (67%)0 .. 20,0000%00:00 (00:00)
381 Toren May 11, 2015 $9.9926% (67%/57%)50,000 .. 100,0000.71%00:09 (00:03)
382 Alea Jacta Est Nov 4, 2014 $24.99N/A (N/A)0 .. 20,0003.85%00:33 (00:11)
383 Zafehouse: Diaries Sep 6, 2013 $1.9926% (67%)50,000 .. 100,0000%00:00 (00:00)
384 Infinity Runner Jul 14, 2014 $6.9926% (67%/56%)0 .. 20,0000%00:00 (00:00)
385 Warhammer 40,000: Armageddon - Da Orks Aug 18, 2016 $19.99N/A (N/A)0 .. 20,0000%00:00 (00:00)
386 Chainsaw Warrior Oct 7, 2013 $4.9926% (67%)100,000 .. 200,0000%00:00 (00:00)
387 Zombie City Defense 2 Aug 19, 2016 $9.9925% (66%)0 .. 20,0000%00:00 (00:00)
388 1849 May 8, 2014 $14.9925% (66%)20,000 .. 50,0000%00:00 (00:00)
389 Fair Strike Apr 23, 2015 $3.99N/A (N/A/56%)0 .. 20,0000%00:00 (00:00)
390 Commander Cool 2 Dec 17, 2015 $2.99N/A (N/A)20,000 .. 50,0001.19%00:57 (00:19)
391 Mad Combat Marines Jul 13, 2016 $0.9925% (66%)20,000 .. 50,0001.23%02:30 (00:50)
392 Sky To Fly: Faster Than Wind Mar 25, 2016 $3.99N/A (N/A)0 .. 20,0000%00:00 (00:00)
393 Zombie Camp Jul 31, 2016 $1.99N/A (N/A)0 .. 20,0000%00:00 (00:00)
394 RISK: Factions Mar 8, 2011 $9.9925% (66%/77%)50,000 .. 100,0001.43%09:23 (03:07)
395 Nomad Fleet Apr 19, 2016 $9.9925% (66%)0 .. 20,0000%00:00 (00:00)
396 Urban Pirate Jun 17, 2016 $6.99N/A (N/A)0 .. 20,0000%00:00 (00:00)
397 1775: Rebellion Sep 29, 2016 $24.99N/A (N/A)0 .. 20,0002.13%01:54 (00:38)
398 Quick Slick Deadly Sep 21, 2015 $1.99N/A (N/A)20,000 .. 50,0000%00:00 (00:00)
399 Sengoku Sep 15, 2011 $9.9925% (66%/70%)100,000 .. 200,0000%00:00 (00:00)
400 Assassin’s Creed Chronicles: India Jan 12, 2016 $9.9925% (66%)50,000 .. 100,0001.37%03:34 (01:11)
401 Scourge: Outbreak Apr 2, 2014 $7.9925% (66%)100,000 .. 200,0000%00:00 (00:00)
402 Disney Pirates of the Caribbean: At Worlds End Oct 6, 2014 $19.9923% (65%)0 .. 20,0000%00:00 (00:00)
403 Theatre of War 2: Africa 1943 Jul 9, 2010 $4.9923% (65%/63%)100,000 .. 200,0000%00:00 (00:00)
404 Ground Breakers Jun 15, 2016 $4.99N/A (N/A)0 .. 20,0000%00:00 (00:00)
405 7th Legion Oct 23, 2014 $6.99N/A (N/A)0 .. 20,0000%00:00 (00:00)
406 Zombie Tycoon 2: Brainhov's Revenge Dec 9, 2013 $4.9923% (65%)50,000 .. 100,0000%00:00 (00:00)
407 Marauder Apr 4, 2014 $9.9923% (65%)20,000 .. 50,0002.5%00:05 (00:01)
408 Men of War: Condemned Heroes Apr 12, 2012 $7.9923% (65%/57%)100,000 .. 200,0000%00:00 (00:00)
409 The Seven Years War (1756-1763) Oct 30, 2015 $19.9923% (65%)0 .. 20,0000%00:00 (00:00)
410 Revenge of Roger Rouge Apr 22, 2016 $0.99N/A (N/A)20,000 .. 50,0000%00:00 (00:00)
411 Zoo Rampage Jul 9, 2014 $3.9922% (64%)0 .. 20,0000%00:00 (00:00)
412 Theatre of War 2: Kursk 1943 Jul 9, 2010 $4.9922% (64%)50,000 .. 100,0000%00:00 (00:00)
413 Link Apr 22, 2016 $4.99N/A (N/A)0 .. 20,0000%00:00 (00:00)
414 Kaiju-A-GoGo Apr 23, 2015 $9.9922% (64%)20,000 .. 50,0000%00:00 (00:00)
415 Devil's Dare 悪魔の挑戦 Oct 21, 2014 $12.9922% (64%)20,000 .. 50,0000%00:00 (00:00)
416 Frozen Synapse Prime Nov 14, 2014 $24.9922% (64%/83%)100,000 .. 200,0000.98%01:17 (00:50)
417 Hunters Of The Dead Sep 4, 2014 $4.9922% (64%)20,000 .. 50,0000%00:00 (00:00)
418 Jagged Alliance: Crossfire Aug 24, 2012 $14.9922% (64%/63%)100,000 .. 200,0000%00:00 (00:00)
419 Warlock 2: The Exiled Apr 10, 2014 $19.9922% (64%/73%)50,000 .. 100,0001.23%02:56 (00:58)
420 Overruled! Sep 15, 2015 $12.99N/A (N/A)20,000 .. 50,0000%00:00 (00:00)
421 A Game of Dwarves Oct 23, 2012 $9.9921% (63%/60%)50,000 .. 100,0000.94%00:04 (00:01)
422 Pixel Boy and the Ever Expanding Dungeon May 30, 2014 $0.9921% (63%)20,000 .. 50,0000%00:00 (00:00)
423 Port Royale 2 Jun 16, 2009 $4.9921% (63%/75%)50,000 .. 100,0000%00:00 (00:00)
424 Battle Worlds: Kronos Nov 4, 2013 $19.9921% (63%/71%)20,000 .. 50,0004%07:17 (02:25)
425 Double Dragon IV Jan 30, 2017 $6.9921% (63%/50%)0 .. 20,00022.22%06:03 (04:02)
426 Will Fight for Food: Super Actual Sellout: Game of the Hour Apr 22, 2015 $5.99N/A (N/A)0 .. 20,0000%00:00 (00:00)
427 Malebolgia May 6, 2015 $12.9921% (63%)0 .. 20,0000%00:00 (00:00)
428 Platypus II Aug 15, 2014 $6.9921% (63%)200,000 .. 500,0000.16%00:03 (00:01)
429 The Few Jun 18, 2014 $7.9921% (63%)20,000 .. 50,0000%00:00 (00:00)
430 Beasts Battle Jun 15, 2016 $1.99N/A (N/A)0 .. 20,0000%00:00 (00:00)
431 Disney Epic Mickey 2: The Power of Two Oct 6, 2014 $19.9920% (62%)0 .. 20,0000%00:00 (00:00)
432 Hyperspace Pinball Sep 30, 2015 $2.99N/A (N/A)0 .. 20,0000%00:00 (00:00)
433 Sorcerer King: Rivals Sep 22, 2016 $13.4920% (62%)20,000 .. 50,0000%00:00 (00:00)
434 To End All Wars Aug 29, 2014 $39.9920% (62%/71%)0 .. 20,0000%00:00 (00:00)
435 SPACECOM Sep 17, 2014 $9.9920% (62%/68%)100,000 .. 200,0004.03%01:46 (02:22)
436 My Super Tower 2 Jan 27, 2017 $0.4920% (62%)0 .. 20,0002.38%00:32 (00:10)
437 Rise: Battle Lines Nov 17, 2015 $1.99N/A (N/A)0 .. 20,0000%00:00 (00:00)
438 Spirit of War Mar 12, 2015 $9.99N/A (N/A)20,000 .. 50,0000%00:00 (00:00)
439 4089: Ghost Within Jan 9, 2015 $5.9920% (62%)0 .. 20,0000%00:00 (00:00)
440 Goblin Defenders: Steel‘n’ Wood Nov 23, 2015 $2.99N/A (N/A)20,000 .. 50,0000%00:00 (00:00)
441 UnSummoning: the Spectral Horde Dec 21, 2015 FreeN/A (N/A)0 .. 20,0008.33%20:30 (06:50)
442 Desert Ashes Nov 10, 2014 $4.99N/A (N/A)20,000 .. 50,0001.28%00:01 (00:00)
443 Freight Tycoon Inc. Apr 3, 2014 $4.9919% (61%)20,000 .. 50,0000%00:00 (00:00)
444 Disciples III - Renaissance Steam Special Edition Jul 16, 2010 $14.9919% (61%/56%)100,000 .. 200,0000%00:00 (00:00)
445 Men of War: Vietnam Sep 8, 2011 $7.9919% (61%/68%)100,000 .. 200,0000.64%00:10 (00:03)
446 Spice Road Apr 24, 2014 $19.99N/A (N/A)0 .. 20,0000%00:00 (00:00)
447 War, the Game Jan 12, 2015 $6.9919% (61%/65%)20,000 .. 50,0000%00:00 (00:00)
448 Call of Duty: Black Ops - Mac Edition Sep 27, 2012 $19.9919% (61%)50,000 .. 100,0001.56%00:01 (00:00)
449 Legions of Steel Jul 16, 2015 $19.99N/A (N/A/64%)0 .. 20,0000%00:00 (00:00)
450 Purgatory Jun 22, 2016 $0.9919% (61%)200,000 .. 500,0000.22%03:31 (02:47)
451 Bombshell Jan 29, 2016 $34.9919% (61%)20,000 .. 50,0009.84%03:57 (04:14)
452 Supreme Ruler: Cold War Jul 29, 2011 $9.9919% (61%/63%)20,000 .. 50,0000%00:00 (00:00)
453 Gnumz: Masters of Defense Dec 21, 2015 $4.99N/A (N/A)20,000 .. 50,0000.4%04:27 (01:29)
454 NOBUNAGA'S AMBITION: Sphere of Influence - Ascension / 信長の野望・創造 戦国立志伝 Mar 23, 2016 $59.9918% (60%)100,000 .. 200,0000%00:00 (00:00)
455 Hybrid Wars Sep 29, 2016 $6.9918% (60%/54%)0 .. 20,0000%00:00 (00:00)
456 Woolfe - The Red Hood Diaries Mar 17, 2015 $9.9918% (60%/55%)50,000 .. 100,0000.88%01:44 (00:34)
457 Flashback Oct 1, 2013 $9.9918% (60%)20,000 .. 50,0000%00:00 (00:00)
458 Eclipse: New Dawn for the Galaxy Sep 16, 2016 N/A18% (60%)0 .. 20,0000%00:00 (00:00)
459 Close Combat - Panthers in the Fog May 14, 2015 $39.9918% (60%)0 .. 20,0000%00:00 (00:00)
460 Assault on Arnhem Mar 11, 2016 $9.99N/A (N/A)0 .. 20,0000%00:00 (00:00)
461 Merchants of Kaidan Nov 10, 2014 $14.9918% (60%)100,000 .. 200,0000.24%02:42 (00:54)
462 BattleLore: Command Mar 31, 2015 $6.9918% (60%)0 .. 20,0000%00:00 (00:00)
463 Defend Your Crypt Jul 21, 2016 $2.99N/A (N/A)0 .. 20,0000%00:00 (00:00)
464 Wanderlust Adventures Aug 10, 2015 $9.9916% (59%)20,000 .. 50,0000%00:00 (00:00)
465 Heavy Fire: Afghanistan Aug 15, 2014 $2.9916% (59%)20,000 .. 50,0000%00:00 (00:00)
466 Code of Princess Apr 14, 2016 $14.9916% (59%/53%)0 .. 20,0000%00:00 (00:00)
467 E.T. Armies Mar 3, 2016 $14.9916% (59%/54%)0 .. 20,0000%00:00 (00:00)
468 Quarantine Feb 9, 2017 $9.9916% (59%)0 .. 20,0000%00:00 (00:00)
469 Patrician IV - Steam Special Edition Sep 17, 2010 $14.9916% (59%/66%)100,000 .. 200,0000%00:00 (00:00)
470 Skyshine's BEDLAM Sep 16, 2015 $19.9916% (59%/67%)20,000 .. 50,0000%00:00 (00:00)
471 Ninjahtic Mind Tricks Jul 16, 2015 $1.99N/A (N/A)0 .. 20,0000%00:00 (00:00)
472 Antisquad May 22, 2014 $5.9916% (59%)50,000 .. 100,0000%00:00 (00:00)
473 Battleplan: American Civil War Jul 4, 2014 $9.9916% (59%/66%)100,000 .. 200,0000%00:00 (00:00)
474 Armada 2526 Gold Edition Feb 28, 2013 $19.9916% (59%/66%)20,000 .. 50,0000%00:00 (00:00)
475 7 Grand Steps: What Ancients Begat Jun 7, 2013 $19.9916% (59%)100,000 .. 200,0000%00:00 (00:00)
476 Prospekt Feb 18, 2016 $9.9916% (59%)20,000 .. 50,0000%00:00 (00:00)
477 Ceres Oct 16, 2015 $19.9915% (58%/74%)0 .. 20,0000%00:00 (00:00)
478 Woodle Tree 2: Worlds Sep 16, 2016 $3.9915% (58%)50,000 .. 100,0000.6%00:02 (00:00)
479 Colonial Conquest Jul 28, 2015 $9.9915% (58%)0 .. 20,0000%00:00 (00:00)
480 Check vs Mate Aug 16, 2012 $19.9915% (58%/69%)0 .. 20,0000%00:00 (00:00)
481 Life in Bunker Feb 25, 2016 $15.9915% (58%)0 .. 20,0000%00:00 (00:00)
482 Cemetery Warrior 3 Feb 3, 2017 $0.9915% (58%)50,000 .. 100,0000%00:00 (00:00)
483 Sir! I'd Like To Report A Bug! Oct 19, 2015 $1.99N/A (N/A)0 .. 20,0000%00:00 (00:00)
484 Prophour23 Oct 22, 2014 $9.99N/A (N/A)0 .. 20,0000%00:00 (00:00)
485 Gates of Horizon Dec 18, 2014 $9.9915% (58%)0 .. 20,0006.25%00:01 (00:00)
486 DreamBreak Jul 21, 2016 $6.99N/A (N/A/46%)20,000 .. 50,0000%00:00 (00:00)
487 Unearthed: Trail of Ibn Battuta - Episode 1 - Gold Edition Jan 3, 2014 $4.9914% (57%)20,000 .. 50,0000%00:00 (00:00)
488 Horizon Feb 6, 2014 $29.9914% (56%/58%)50,000 .. 100,0000%00:00 (00:00)
489 Delve Deeper Sep 24, 2010 $4.9914% (56%)50,000 .. 100,0000%00:00 (00:00)
490 Stay Dead Evolution Feb 4, 2015 $5.99N/A (N/A)20,000 .. 50,0001.33%04:10 (01:23)
491 Super Helmets on Fire DX Ultra Edition Plus Alpha Feb 15, 2016 $0.99N/A (N/A)0 .. 20,0000%00:00 (00:00)
492 Crazy Forest Jul 6, 2016 $4.99N/A (N/A)100,000 .. 200,0000.36%00:03 (00:01)
493 Abalone Apr 23, 2014 $6.99N/A (N/A)20,000 .. 50,0002.38%05:45 (01:55)
494 Story Of the Survivor Feb 16, 2016 $2.99N/A (N/A)50,000 .. 100,0000%00:00 (00:00)
495 Rise of Venice Sep 27, 2013 $19.9914% (56%/66%)50,000 .. 100,0001.85%00:02 (00:00)
496 VR Journey Dec 15, 2016 $2.99N/A (N/A)20,000 .. 50,0000.86%02:03 (00:41)
497 Adventure World Aug 2, 2016 $4.99N/A (N/A)0 .. 20,0000%00:00 (00:00)
498 reconquest Dec 16, 2016 $4.7913% (55%)0 .. 20,0000%00:00 (00:00)
499 Pain Train Jan 11, 2017 $0.9913% (55%)50,000 .. 100,0000%00:00 (00:00)
500 BC Kings Jun 16, 2009 $4.9912% (54%)20,000 .. 50,0000%00:00 (00:00)
501 Dawn of Andromeda May 4, 2017 $29.9912% (54%/70%)0 .. 20,0000%00:00 (00:00)
502 Urja Jan 9, 2015 $9.9912% (54%)20,000 .. 50,0000%00:00 (00:00)
503 RESCUE 2: Everyday Heroes Jun 3, 2015 $19.9912% (54%)20,000 .. 50,0000%00:00 (00:00)
504 Crusaders: Thy Kingdom Come Oct 8, 2009 $9.99N/A (N/A)0 .. 20,0000%00:00 (00:00)
505 Castle Werewolf 3D Feb 7, 2017 $2.9912% (53%)50,000 .. 100,0000.25%00:19 (00:06)
506 Smugglers 5 Apr 11, 2014 $6.9912% (53%)20,000 .. 50,0000%00:00 (00:00)
507 Tic-Toc-Tower Sep 28, 2015 $2.99N/A (N/A)0 .. 20,0000%00:00 (00:00)
508 Wickland Feb 6, 2015 $0.9912% (53%)50,000 .. 100,0000%00:00 (00:00)
509 Armada 2526 Apr 8, 2011 $14.99N/A (N/A/66%)0 .. 20,0000%00:00 (00:00)
510 MDK2 HD Jul 30, 2012 $14.9912% (53%/73%)0 .. 20,0000%00:00 (00:00)
511 Sovereignty: Crown of Kings Feb 2, 2017 $24.9912% (53%)0 .. 20,0000%00:00 (00:00)
512 Grim Seventh Jan 20, 2017 FreeN/A (N/A)0 .. 20,0000%00:00 (00:00)
513 Weather Lord: The Successor's Path May 7, 2015 $4.99N/A (N/A)0 .. 20,0000%00:00 (00:00)
514 Dusty Revenge:Co-Op Edition Feb 17, 2014 $14.9911% (52%)50,000 .. 100,0000%00:00 (00:00)
515 MinosMaze - The Minotaur's Labyrinth May 1, 2017 $4.99N/A (N/A)0 .. 20,0002.56%00:01 (00:00)
516 The Stalin Subway Sep 19, 2014 $3.9911% (52%)0 .. 20,0000%00:00 (00:00)
517 Meridian: Squad 22 Aug 11, 2016 $14.99N/A (N/A)0 .. 20,0000%00:00 (00:00)
518 Nightside Aug 6, 2015 $4.9910% (51%)20,000 .. 50,0000%00:00 (00:00)
519 Meridian: New World Sep 26, 2014 $6.9910% (51%/43%)50,000 .. 100,0000.65%00:49 (00:16)
520 Biodrone Battle Jul 16, 2015 $1.9910% (51%)100,000 .. 200,0000%00:00 (00:00)
521 Royal Bounty HD Aug 10, 2015 $2.9910% (51%)0 .. 20,0005.56%00:01 (00:00)
522 Chronostorm: Siberian Border Nov 20, 2015 $0.99N/A (N/A)0 .. 20,0000%00:00 (00:00)
523 Scapeland Mar 31, 2016 $3.99N/A (N/A)0 .. 20,0000%00:00 (00:00)
524 Guncraft Aug 9, 2013 $14.9910% (50%/73%)100,000 .. 200,0000%00:00 (00:00)
525 Defence to death May 11, 2017 $1.99N/A (N/A)50,000 .. 100,0000%00:00 (00:00)
526 Aggression: Europe Under Fire Apr 9, 2014 $9.9910% (50%)0 .. 20,0000%00:00 (00:00)
527 No Pineapple Left Behind Feb 18, 2016 $6.99N/A (N/A/59%)0 .. 20,0000%00:00 (00:00)
528 Kidnapped Aug 4, 2015 $2.999% (49%)100,000 .. 200,0000.28%00:46 (00:15)
529 Albedo: Eyes from Outer Space Apr 10, 2015 $14.999% (49%/66%)50,000 .. 100,0000%00:00 (00:00)
530 Synonymy Mar 5, 2015 $1.99N/A (N/A)0 .. 20,0000%00:00 (00:00)
531 Rubber and Lead Sep 4, 2015 $4.999% (48%)20,000 .. 50,0000%00:00 (00:00)
532 Star Traders: 4X Empires Dec 16, 2014 $9.99N/A (N/A)0 .. 20,0000%00:00 (00:00)
533 Marvel: Ultimate Alliance 2 Jul 26, 2016 N/A9% (48%)0 .. 20,0000%00:00 (00:00)
534 Hero Generations Apr 10, 2015 $5.998% (47%)0 .. 20,0000%00:00 (00:00)
535 Blasting Agent: Ultimate Edition Aug 17, 2016 $2.99N/A (N/A)0 .. 20,0000%00:00 (00:00)
536 Z Steel Soldiers Aug 1, 2014 $12.998% (47%)50,000 .. 100,0000.9%04:16 (01:50)
537 Hell Nov 13, 2014 $29.99N/A (N/A)0 .. 20,0000%00:00 (00:00)
538 The Stalin Subway: Red Veil Oct 24, 2014 $2.998% (47%)20,000 .. 50,0000%00:00 (00:00)
539 Aegis Oct 6, 2016 $2.99N/A (N/A)0 .. 20,0000%00:00 (00:00)
540 Odd||Even Apr 6, 2016 $0.99N/A (N/A)20,000 .. 50,0000%00:00 (00:00)
541 Disposable Heroes Mar 22, 2016 $4.99N/A (N/A)20,000 .. 50,0000%00:00 (00:00)
542 PeriAreion Feb 19, 2015 $5.99N/A (N/A)0 .. 20,0000%00:00 (00:00)
543 Carrier Command: Gaea Mission Sep 28, 2012 $32.998% (46%/60%)200,000 .. 500,0000.46%00:48 (00:16)
544 Magic Quest May 6, 2016 $1.99N/A (N/A)50,000 .. 100,0000%00:00 (00:00)
545 ALONE IN SPACE Feb 22, 2016 $9.998% (46%)0 .. 20,0000%00:00 (00:00)
546 HitBox Jan 30, 2017 Free8% (46%)0 .. 20,0002.7%00:58 (00:19)
547 Pride of Nations Jun 7, 2011 $19.998% (46%/70%)20,000 .. 50,0000%00:00 (00:00)
548 Crossfire: Dungeons May 21, 2015 $3.998% (46%)0 .. 20,0000%00:00 (00:00)
549 Megamagic: Wizards of the Neon Age Apr 20, 2016 $9.99N/A (N/A/67%)20,000 .. 50,0000%00:00 (00:00)
550 World War 2: Time of Wrath Jun 6, 2014 $4.99N/A (N/A)20,000 .. 50,0000%00:00 (00:00)
551 Battle Chess: Game of Kings Dec 11, 2015 $29.997% (45%)0 .. 20,0000%00:00 (00:00)
552 The Campaign Series: Fall Weiss May 30, 2014 $14.99N/A (N/A)20,000 .. 50,0000%00:00 (00:00)
553 Impire Feb 14, 2013 $19.997% (45%/45%)100,000 .. 200,0000%00:00 (00:00)
554 Skyward Collapse May 23, 2013 $0.997% (45%/64%)100,000 .. 200,0000%00:00 (00:00)
555 Island Defense Jul 23, 2015 $1.99N/A (N/A)50,000 .. 100,0000%00:00 (00:00)
556 Redemption: Saints And Sinners Nov 18, 2016 $0.997% (44%)50,000 .. 100,0000.38%05:02 (01:40)
557 The Bluecoats: North vs South Feb 2, 2015 $4.997% (44%)20,000 .. 50,0000%00:00 (00:00)
558 Commander: Conquest of the Americas Jul 30, 2010 $9.997% (44%/68%)50,000 .. 100,0000%00:00 (00:00)
559 Dungeons Feb 10, 2011 $9.996% (43%/65%)200,000 .. 500,0000%00:00 (00:00)
560 Vendetta - Curse of Raven's Cry Nov 20, 2015 $29.996% (43%)0 .. 20,0004.65%04:00 (02:40)
561 Rulers of Nations Jul 16, 2014 $19.996% (43%/63%)0 .. 20,0000%00:00 (00:00)
562 The Entente Gold Jun 16, 2014 $0.596% (43%)20,000 .. 50,0000%00:00 (00:00)
563 Samudai Feb 9, 2015 $2.99N/A (N/A)20,000 .. 50,0000%00:00 (00:00)
564 Burstfire Sep 24, 2015 N/A6% (42%)50,000 .. 100,0000%00:00 (00:00)
565 Nux Aug 15, 2014 $6.99N/A (N/A)200,000 .. 500,0000%00:00 (00:00)
566 Sword of the Stars II: Enhanced Edition Nov 30, 2012 $19.996% (42%/65%)100,000 .. 200,0000%00:00 (00:00)
567 Pain Train 2 Mar 16, 2017 $0.695% (41%)20,000 .. 50,0000%00:00 (00:00)
568 Hydraulic Empire Jul 31, 2015 $7.99N/A (N/A)0 .. 20,0000%00:00 (00:00)
569 Strategic War in Europe Mar 21, 2014 $14.995% (40%)20,000 .. 50,0001.08%01:56 (00:38)
570 Knight Adventure Oct 15, 2015 $0.99N/A (N/A)50,000 .. 100,0000%00:00 (00:00)
571 The Kings' Crusade Oct 8, 2010 $9.995% (40%/71%)50,000 .. 100,0000%00:00 (00:00)
572 Heavy Fire: Shattered Spear Oct 23, 2015 $3.99N/A (N/A)0 .. 20,0000%00:00 (00:00)
573 Mechs & Mercs: Black Talons Jan 9, 2015 $9.995% (39%)0 .. 20,0004.76%01:46 (00:35)
574 Dungeons - The Dark Lord Sep 27, 2011 $19.995% (39%/72%)100,000 .. 200,0000%00:00 (00:00)
575 Wave of Darkness Nov 5, 2015 $29.99N/A (N/A)0 .. 20,0003.57%02:31 (00:50)
576 Risk Jun 10, 2013 $9.995% (39%)20,000 .. 50,0000%00:00 (00:00)
577 Gratuitous Space Battles 2 Apr 16, 2015 $9.995% (39%)20,000 .. 50,0000%00:00 (00:00)
578 Dark Matter Oct 17, 2013 $9.995% (39%)0 .. 20,0000%00:00 (00:00)
579 Devils & Demons Oct 6, 2015 $9.99N/A (N/A)20,000 .. 50,0000%00:00 (00:00)
580 Control Craft 2 Feb 15, 2016 $2.99N/A (N/A)0 .. 20,0001.67%05:58 (01:59)
581 Dead But Alive! Southern England Oct 2, 2015 $14.99N/A (N/A)0 .. 20,0000%00:00 (00:00)
582 Lost in Paradise Aug 20, 2015 $2.994% (38%)20,000 .. 50,0001.43%00:03 (00:01)
583 Infection: Humanity's Last Gasp May 26, 2016 $9.99N/A (N/A)0 .. 20,0000%00:00 (00:00)
584 Stellar Impact Apr 12, 2012 $9.994% (37%/74%)50,000 .. 100,0000%00:00 (00:00)
585 Blue Sheep Mar 31, 2016 $1.99N/A (N/A)0 .. 20,0000%00:00 (00:00)
586 Tiamat X May 29, 2015 $1.99N/A (N/A)50,000 .. 100,0000%00:00 (00:00)
587 Zombie Apocalypse: Escape The Undead City Jun 17, 2016 $0.99N/A (N/A)0 .. 20,0000%00:00 (00:00)
588 Shadows of War Jan 2, 2015 $2.993% (35%)20,000 .. 50,0000%00:00 (00:00)
589 Sim Junta Aug 18, 2015 $1.993% (35%)0 .. 20,0000%00:00 (00:00)
590 Urban Empire Jan 20, 2017 $29.993% (35%/62%)50,000 .. 100,0002.38%00:18 (00:06)
591 CTU: Counter Terrorism Unit Apr 22, 2016 $1.49N/A (N/A)0 .. 20,0000%00:00 (00:00)
592 Into the Void Dec 4, 2015 $4.99N/A (N/A)20,000 .. 50,0000%00:00 (00:00)
593 Disciples III - Resurrection Oct 11, 2011 $14.993% (34%/63%)100,000 .. 200,0000%00:00 (00:00)
594 Fallen: A2P Protocol Aug 14, 2015 $9.993% (34%)20,000 .. 50,0000%00:00 (00:00)
595 Arma Tactics Oct 1, 2013 $8.993% (34%/47%)200,000 .. 500,0000.21%00:01 (00:00)
596 Jagged Alliance Flashback Oct 21, 2014 $19.993% (33%)20,000 .. 50,0000%00:00 (00:00)
597 Kick-Ass 2 Aug 15, 2014 $19.993% (33%)20,000 .. 50,0000%00:00 (00:00)
598 Ranger of the jungle Jul 18, 2016 $3.99N/A (N/A)0 .. 20,0000%00:00 (00:00)
599 Ku: Shroud of the Morrigan Mar 17, 2014 $4.99N/A (N/A)20,000 .. 50,0000%00:00 (00:00)
600 Psichodelya Aug 8, 2014 $1.99N/A (N/A)100,000 .. 200,0000%00:00 (00:00)
601 Zombie Zoeds May 20, 2015 $2.992% (31%)200,000 .. 500,0006.25%04:33 (01:31)
602 Evopollution Apr 23, 2014 $4.992% (31%)0 .. 20,0000%00:00 (00:00)
603 A Game of Thrones - Genesis Sep 28, 2011 $9.992% (31%)100,000 .. 200,0000.95%00:17 (00:05)
604 Ground Pounders Jul 15, 2014 $4.99N/A (N/A)0 .. 20,0000%00:00 (00:00)
605 Power of Defense Aug 4, 2010 $9.99N/A (N/A)0 .. 20,0000%00:00 (00:00)
606 Robotex Nov 19, 2014 $4.992% (30%)100,000 .. 200,0000%00:00 (00:00)
607 Defenders of Time Nov 4, 2014 N/AN/A (N/A/55%)0 .. 20,0000%00:00 (00:00)
608 Tank Operations: European Campaign Nov 22, 2013 $19.992% (29%)20,000 .. 50,0000%00:00 (00:00)
609 Zombies on a Plane Mar 25, 2016 $4.99N/A (N/A)0 .. 20,0000%00:00 (00:00)
610 Solar Shifter EX Sep 11, 2015 $4.99N/A (N/A)20,000 .. 50,0000%00:00 (00:00)
611 Gridberd Sep 7, 2015 $1.39N/A (N/A)200,000 .. 500,0000%00:00 (00:00)
612 Hard Truck Apocalypse: Arcade / Ex Machina: Arcade Mar 14, 2014 $4.991% (25%)20,000 .. 50,0000%00:00 (00:00)
613 One Star Apr 17, 2017 $2.991% (25%)50,000 .. 100,0000.34%00:05 (00:01)
614 APOX Jan 20, 2011 $14.991% (23%/48%)20,000 .. 50,0000%00:00 (00:00)
615 Elite vs. Freedom May 31, 2016 $0.841% (23%)0 .. 20,0000%00:00 (00:00)
616 The Asskickers-Steam Edition Feb 6, 2015 $9.99N/A (N/A)0 .. 20,0000%00:00 (00:00)
617 Lords of the Black Sun Sep 12, 2014 $29.991% (21%)20,000 .. 50,0000%00:00 (00:00)
618 Gemini Wars Nov 2, 2012 $14.991% (20%/53%)20,000 .. 50,0000%00:00 (00:00)
619 Star Project Aug 4, 2016 $1.99N/A (N/A)100,000 .. 200,0000%00:00 (00:00)
620 Human Extinction Simulator Jan 21, 2015 $19.99N/A (N/A)0 .. 20,0000%00:00 (00:00)
621 Tryst Sep 14, 2012 $14.99N/A (N/A/50%)0 .. 20,0000%00:00 (00:00)
622 Prison Tycoon 3: Lockdown Jan 29, 2008 $9.991% (17%)20,000 .. 50,0000%00:00 (00:00)
623 Once Bitten, Twice Dead! Jul 7, 2015 $4.99N/A (N/A)20,000 .. 50,0000%00:00 (00:00)
624 Citadels Jul 25, 2013 $14.991% (13%/20%)20,000 .. 50,0000%00:00 (00:00)
625 Bloodbath Jun 16, 2014 $14.99N/A (N/A)0 .. 20,0000%00:00 (00:00)
626 Magnetic By Nature Nov 10, 2014 $9.99N/A (N/A)20,000 .. 50,0000%00:00 (00:00)

Tags over time:

Access restricted.

This feature is only available to users with special access rights. Sorry.

If you want to proceed, you need to register or log in first and then back Steam Spy on Patreon. Look for Indie or Pro pledge.

Don't forget to use the same email as on Steam Spy!

Owners of this game also own:

Access restricted.

This feature is only available to users with special access rights. Sorry.

If you want to proceed, you need to register or log in first and then back Steam Spy on Patreon. Look for Indie or Pro pledge.

Don't forget to use the same email as on Steam Spy!

Playtime distribution:

Access restricted.

This feature is only available to users with special access rights. Sorry.

If you want to proceed, you need to register or log in first and then back Steam Spy on Patreon. Look for Indie or Pro pledge.

Don't forget to use the same email as on Steam Spy!

Playtime (2 weeks):

Access restricted.

This feature is only available to users with special access rights. Sorry.

If you want to proceed, you need to register or log in first and then back Steam Spy on Patreon. Look for Indie or Pro pledge.

Don't forget to use the same email as on Steam Spy!

User reviews:

Login required.

Please register or log in to see this information.